Flag for Mexico Weather past 2 weeks in Mazatlan, Sinaloa, Mexico

Now
54 °F

Clear.


Feels Like: 54 °F
Forecast: 81 / 87 °F
Wind: No wind

Location: Durango Airport

Current Time: Oct 2, 2014 at 6:11:08 AM

Latest Report: Oct 2, 2014 at 5:45 AM


Visibility: 7 mi

Pressure: 29.74 "Hg

Humidity: 88%

Dew point: 50 °F

Location of MazatlanLocation

Historic Weather in Mazatlan — Graph

°F

Mazatlan temperature yesterday

Maximum temperature yesterday: 82 °F (at 3:40 PM)
Minimum temperature yesterday: 50 °F (at 6:40 AM)
Average temperature yesterday: 69 °F

Past Weeks' High & Low Weather Summary

 TemperatureHumidityPressure
High82 °F (Oct 1, 3:40 PM)100% (Sep 26, 4:02 AM)30.38 "Hg (Sep 26, 4:02 AM)
Low50 °F (Sep 28, 6:40 AM)23% (Oct 1, 3:40 PM)29.62 "Hg (Oct 1, 5:41 PM)
Average67 °F67%30.07 "Hg
* Reported Sep 17 4:03 AM — Oct 2 4:40 AM, Mazatlan, Weather by CustomWeather, © 2014

Note: Actual official high and low records may vary slightly from our data, if they occured in-between our weather recording intervals... More about our weather records

Advertising

Mazatlan weather history for previous 24 hours

 ConditionsComfort  
Time TempWeatherWind HumidityBarometerVisibility
4:40 AM
Oct 2
55 °FClear.6 mph82%30.15 "Hg7 mi
3:59 AM55 °FClear.5 mph82%30.15 "Hg7 mi
12:43 AM61 °FPassing clouds.7 mph68%30.16 "Hg10 mi
11:47 PM
Oct 1
63 °FPassing clouds.6 mph64%29.71 "Hg10 mi
10:44 PM64 °FPartly cloudy.6 mph60%30.15 "Hg10 mi
9:43 PM66 °FPassing clouds.5 mph52%30.13 "Hg10 mi
8:45 PM68 °FPassing clouds.3 mph46%29.74 "Hg10 mi
7:47 PM70 °FPassing clouds.6 mph38%30.07 "Hg10 mi
6:40 PM75 °FScattered clouds.7 mph29%30.05 "Hg12 mi
5:41 PM81 °FScattered clouds.13 mph24%29.62 "Hg14 mi
4:41 PM82 °FScattered clouds.5 mph23%30.01 "Hg14 mi
4:37 PM82 °FScattered clouds.5 mph23%30.01 "Hg14 mi
3:40 PM82 °FScattered clouds.9 mph23%30.02 "Hg14 mi
2:42 PM81 °FScattered clouds.7 mph26%29.63 "Hg14 mi
1:40 PM79 °FScattered clouds.3 mph30%30.08 "Hg14 mi
1:37 PM79 °FScattered clouds.3 mph30%30.08 "Hg14 mi
12:40 PM79 °FPassing clouds.5 mph30%30.11 "Hg14 mi
11:42 AM75 °FPassing clouds.3 mph39%29.72 "Hg14 mi
10:41 AM72 °FPassing clouds.No wind47%30.16 "Hg14 mi
9:46 AM66 °FPassing clouds.5 mph64%30.16 "Hg14 mi
8:42 AM61 °FScattered clouds.No wind77%29.78 "Hg14 mi
7:42 AM54 °FPassing clouds.No wind88%30.15 "Hg14 mi
6:40 AM50 °FPassing clouds.5 mph94%30.13 "Hg14 mi
Weather by CustomWeather, © 2014

See weather overviewHow to use our weather pages